When you browse on this site, cookies collect data to enhance your experience and personalize the content and advertising you see.
Visit our Privacy Policy to learn more. By continuing to use the site, you agree to this use of cookies and data.
  • In Spain
  • List of Countries
  • For 7 days
  • Water Temperature
  • Satellite Maps
  • Weather Map
  • Weather Widgets
  • user-avatar
    Login

    Hourly Weather Ordino

    Today, 22 March, Friday

    Time Temperature Precipitation Wind Pressure Humidity
    00:00 +1°C° 0 mm 1 mps 637 mmHg 53%
    01:00 +1°C° 0 mm 1 mps 637 mmHg 52%
    02:00 +1°C° 0 mm 1 mps 637 mmHg 51%
    03:00 +1°C° 0 mm 1 mps 636 mmHg 50%
    04:00 +1°C° 0 mm 1 mps 637 mmHg 51%
    05:00 +1°C° 0 mm 1 mps 637 mmHg 52%
    06:00 +1°C° 0 mm 1 mps 637 mmHg 54%
    07:00 +4°C° 0 mm 1 mps 638 mmHg 50%
    08:00 +7°C° 0 mm 1 mps 639 mmHg 47%
    09:00 +10°C° 0 mm 1 mps 640 mmHg 44%
    10:00 +11°C° 0 mm 1 mps 641 mmHg 42%
    11:00 +12°C° 0 mm 1 mps 641 mmHg 41%
    12:00 +13°C° 0 mm 1 mps 641 mmHg 39%
    13:00 +12°C° 0 mm 1 mps 641 mmHg 42%
    14:00 +12°C° 0 mm 1 mps 640 mmHg 45%
    15:00 +12°C° 0 mm 1 mps 640 mmHg 47%
    16:00 +10°C° 0.2 mm 1 mps 639 mmHg 54%
    17:00 +8°C° 0.2 mm 1 mps 638 mmHg 61%
    18:00 +6°C° 0.2 mm 0 mps 638 mmHg 68%
    19:00 +6°C° 0 mm 1 mps 638 mmHg 71%
    20:00 +5°C° 0 mm 1 mps 638 mmHg 74%
    21:00 +4°C° 0 mm 1 mps 638 mmHg 77%
    22:00 +4°C° 0 mm 1 mps 637 mmHg 77%
    23:00 +4°C° 0 mm 1 mps 637 mmHg 77%

    Tomorrow, 23 March, Saturday

    Time Temperature Precipitation Wind Pressure Humidity
    00:00 +3°C° 0 mm 1 mps 637 mmHg 77%
    01:00 +3°C° 0 mm 1 mps 637 mmHg 77%
    02:00 +3°C° 0 mm 1 mps 637 mmHg 76%
    03:00 +3°C° 0 mm 1 mps 637 mmHg 76%
    04:00 +3°C° 0 mm 1 mps 637 mmHg 75%
    05:00 +3°C° 0 mm 1 mps 637 mmHg 75%
    06:00 +3°C° 0 mm 1 mps 637 mmHg 74%
    07:00 +6°C° 0 mm 1 mps 638 mmHg 64%
    08:00 +8°C° 0 mm 1 mps 639 mmHg 54%
    09:00 +11°C° 0 mm 1 mps 640 mmHg 44%
    10:00 +12°C° 0 mm 1 mps 640 mmHg 41%
    11:00 +13°C° 0 mm 1 mps 640 mmHg 38%
    12:00 +15°C° 0 mm 1 mps 641 mmHg 35%
    13:00 +14°C° 0 mm 1 mps 640 mmHg 36%
    14:00 +14°C° 0 mm 1 mps 639 mmHg 38%
    15:00 +14°C° 0 mm 1 mps 639 mmHg 39%
    16:00 +12°C° 0 mm 1 mps 638 mmHg 47%
    17:00 +10°C° 0 mm 1 mps 637 mmHg 55%
    18:00 +8°C° 0 mm 1 mps 637 mmHg 63%
    19:00 +7°C° 0 mm 1 mps 637 mmHg 67%
    20:00 +6°C° 0 mm 1 mps 637 mmHg 71%
    21:00 +5°C° 0 mm 1 mps 637 mmHg 75%
    22:00 +5°C° 0 mm 1 mps 636 mmHg 74%
    23:00 +5°C° 0 mm 1 mps 636 mmHg 73%

    Day after tomorrow, 24 March, Sunday

    Time Temperature Precipitation Wind Pressure Humidity
    00:00 +5°C° 0 mm 1 mps 636 mmHg 73%
    01:00 +5°C° 0 mm 1 mps 636 mmHg 72%
    02:00 +5°C° 0 mm 1 mps 636 mmHg 71%
    03:00 +5°C° 0 mm 1 mps 636 mmHg 70%
    04:00 +4°C° 0 mm 1 mps 636 mmHg 70%
    05:00 +4°C° 0 mm 1 mps 636 mmHg 71%
    06:00 +4°C° 0 mm 1 mps 636 mmHg 72%
    07:00 +6°C° 0 mm 0 mps 637 mmHg 63%
    08:00 +8°C° 0 mm 0 mps 638 mmHg 55%
    09:00 +11°C° 0 mm 0 mps 639 mmHg 46%
    10:00 +12°C° 0 mm 0 mps 639 mmHg 44%
    11:00 +14°C° 0 mm 1 mps 639 mmHg 41%
    12:00 +15°C° 0 mm 1 mps 640 mmHg 39%
    13:00 +14°C° 0.1 mm 1 mps 639 mmHg 42%
    14:00 +13°C° 0.1 mm 1 mps 638 mmHg 46%
    15:00 +12°C° 0.1 mm 1 mps 638 mmHg 49%
    16:00 +11°C° 0.2 mm 1 mps 637 mmHg 57%
    17:00 +10°C° 0.2 mm 1 mps 637 mmHg 64%
    18:00 +8°C° 0.2 mm 1 mps 636 mmHg 71%
    19:00 +7°C° 0 mm 1 mps 636 mmHg 76%
    20:00 +6°C° 0 mm 1 mps 636 mmHg 80%
    21:00 +5°C° 0 mm 1 mps 636 mmHg 84%
    22:00 +5°C° 0 mm 1 mps 636 mmHg 85%
    23:00 +5°C° 0 mm 1 mps 636 mmHg 86%

    25 March, Monday

    Time Temperature Precipitation Wind Pressure Humidity
    00:00 +5°C° 0 mm 1 mps 635 mmHg 87%
    01:00 +4°C° 0 mm 1 mps 635 mmHg 88%
    02:00 +4°C° 0 mm 1 mps 635 mmHg 88%
    03:00 +4°C° 0 mm 1 mps 635 mmHg 89%
    04:00 +4°C° 0 mm 1 mps 635 mmHg 89%
    05:00 +4°C° 0 mm 1 mps 635 mmHg 89%
    06:00 +4°C° 0 mm 1 mps 635 mmHg 90%
    07:00 +6°C° 0 mm 1 mps 636 mmHg 79%
    08:00 +9°C° 0 mm 1 mps 637 mmHg 69%
    09:00 +11°C° 0 mm 1 mps 638 mmHg 59%
    10:00 +12°C° 0.1 mm 1 mps 638 mmHg 58%
    11:00 +12°C° 0.1 mm 1 mps 638 mmHg 56%
    12:00 +13°C° 0.1 mm 1 mps 638 mmHg 54%
    13:00 +12°C° 0.7 mm 1 mps 637 mmHg 59%
    14:00 +11°C° 0.7 mm 1 mps 637 mmHg 64%
    15:00 +11°C° 0.7 mm 1 mps 636 mmHg 68%
    16:00 +10°C° 0.7 mm 1 mps 636 mmHg 74%
    17:00 +9°C° 0.7 mm 1 mps 635 mmHg 79%
    18:00 +8°C° 0.7 mm 1 mps 635 mmHg 85%
    19:00 +7°C° 0.1 mm 1 mps 635 mmHg 88%
    20:00 +7°C° 0.1 mm 1 mps 635 mmHg 90%
    21:00 +6°C° 0.1 mm 1 mps 635 mmHg 93%
    22:00 +6°C° 0 mm 1 mps 635 mmHg 93%
    23:00 +5°C° 0 mm 1 mps 635 mmHg 94%

    26 March, Tuesday

    Time Temperature Precipitation Wind Pressure Humidity
    00:00 +5°C° 0 mm 1 mps 635 mmHg 94%
    01:00 +4°C° 0 mm 1 mps 635 mmHg 94%
    02:00 +4°C° 0 mm 1 mps 635 mmHg 94%
    03:00 +4°C° 0 mm 1 mps 635 mmHg 93%
    04:00 +4°C° 0 mm 1 mps 634 mmHg 92%
    05:00 +3°C° 0 mm 1 mps 634 mmHg 91%
    06:00 +3°C° 0 mm 1 mps 634 mmHg 91%
    07:00 +6°C° 0 mm 1 mps 635 mmHg 78%
    08:00 +9°C° 0 mm 1 mps 637 mmHg 65%
    09:00 +10°C° 0 mm 0 mps 638 mmHg 53%
    10:00 +13°C° 0 mm 1 mps 638 mmHg 47%
    11:00 +14°C° 0 mm 1 mps 639 mmHg 42%
    12:00 +15°C° 0 mm 1 mps 639 mmHg 37%
    13:00 +15°C° 0 mm 1 mps 639 mmHg 39%
    14:00 +15°C° 0 mm 1 mps 638 mmHg 40%
    15:00 +15°C° 0 mm 1 mps 638 mmHg 42%
    16:00 +13°C° 0 mm 1 mps 637 mmHg 50%
    17:00 +11°C° 0 mm 1 mps 637 mmHg 59%
    18:00 +9°C° 0 mm 1 mps 636 mmHg 68%
    19:00 +8°C° 0 mm 1 mps 637 mmHg 73%
    20:00 +7°C° 0 mm 1 mps 637 mmHg 79%
    21:00 +6°C° 0 mm 1 mps 637 mmHg 85%
    22:00 +6°C° 0 mm 1 mps 637 mmHg 87%
    23:00 +6°C° 0 mm 1 mps 637 mmHg 89%

    27 March, Wednesday

    Time Temperature Precipitation Wind Pressure Humidity
    00:00 +4°C° 0 mm 2 mps 637 mmHg 90%
    01:00 +4°C° 0 mm 2 mps 637 mmHg 88%
    02:00 +4°C° 0 mm 2 mps 637 mmHg 86%
    03:00 +4°C° 0 mm 2 mps 636 mmHg 84%
    04:00 +3°C° 0 mm 2 mps 636 mmHg 80%
    05:00 +3°C° 0 mm 2 mps 636 mmHg 76%
    06:00 +3°C° 0 mm 2 mps 636 mmHg 72%
    07:00 +5°C° 0 mm 2 mps 637 mmHg 59%
    08:00 +8°C° 0 mm 2 mps 639 mmHg 47%
    09:00 +10°C° 0 mm 2 mps 640 mmHg 34%
    10:00 +13°C° 0 mm 2 mps 640 mmHg 32%
    11:00 +14°C° 0 mm 2 mps 640 mmHg 29%
    12:00 +15°C° 0 mm 2 mps 641 mmHg 27%
    13:00 +15°C° 0 mm 2 mps 640 mmHg 29%
    14:00 +15°C° 0 mm 2 mps 640 mmHg 30%
    15:00 +15°C° 0 mm 2 mps 640 mmHg 32%
    16:00 +13°C° 0 mm 2 mps 639 mmHg 41%
    17:00 +10°C° 0 mm 2 mps 639 mmHg 51%
    18:00 +8°C° 0 mm 2 mps 638 mmHg 60%
    19:00 +7°C° 0 mm 2 mps 638 mmHg 66%
    20:00 +5°C° 0 mm 2 mps 638 mmHg 72%
    21:00 +4°C° 0 mm 2 mps 638 mmHg 77%
    22:00 +5°C° 0 mm 1 mps 638 mmHg 78%
    23:00 +4°C° 0 mm 1 mps 638 mmHg 78%
    Show more